Weather History for KNKX - May, 2014

Change the Weather History Date:

Wednesday, May 14, 2014

  Actual Average Record
Temperature  
Mean Temperature 77 °F -  
Max Temperature 98 °F 69 °F 98 °F (2014)
Min Temperature 57 °F 51 °F 45 °F (1998)
Cooling Degree Days 12    
Growing Degree Days 27 (Base 50)    
Moisture  
Dew Point 14 °F    
Average Humidity 10    
Maximum Humidity 20    
Minimum Humidity 4    
Precipitation  
Precipitation 0.00 in - - ()
Sea Level Pressure  
Sea Level Pressure 29.97 in    
Wind  
Wind Speed 6 mph (NNW)    
Max Wind Speed 15 mph    
Max Gust Speed 22 mph    
Visibility 10 miles    
Events      
Averages and records for this station are not official NWS values.
T = Trace of Precipitation, MM = Missing Value Source: NWS Daily Summary

Daily Weather History Graph

Daily Weather History Graph

Search for Another Location

Airport or City:

Trip Planner

Search our weather history database for the weather conditions in past years. The results will help you decide how hot, cold, wet, or windy it might be!

Date:

Astronomy

May. 14, 2014 Rise Set
Actual Time 5:50 AM PDT 7:40 PM PDT
Civil Twilight 5:22 AM PDT 8:07 PM PDT
Nautical Twilight 4:50 AM PDT 8:40 PM PDT
Astronomical Twilight 4:15 AM PDT 9:14 PM PDT
Moon 7:51 PM PDT (5/14) 5:49 AM PDT (5/14)
Length of Visible Light 14h 44m
Length of Day
13h 49m
Full, 100% of the Moon is Illuminated
May 14
Full
May 14
Full
May 21
Last Quarter
May 28
New
Jun 5
First Quarter

Hourly Weather History & Observations

Time (PDT) Temp. Dew Point Humidity Pressure Visibility Wind Dir Wind Speed Gust Speed Precip Events Conditions
12:55 AM 66.0 °F 23.0 °F 20% 30.01 in 10.0 mi Calm Calm - N/A   Clear
1:55 AM 60.1 °F 17.1 °F 19% 30.00 in 10.0 mi Calm Calm - N/A   Clear
2:55 AM 57.0 °F 14.0 °F 18% 29.99 in 10.0 mi ESE 4.6 mph - N/A   Clear
3:55 AM 63.0 °F 12.0 °F 14% 29.98 in 10.0 mi East 8.1 mph - N/A   Clear
4:55 AM 63.0 °F 10.0 °F 13% 29.98 in 10.0 mi East 6.9 mph - N/A   Clear
5:55 AM 66.0 °F 10.9 °F 12% 29.98 in 10.0 mi North 6.9 mph - N/A   Clear
6:55 AM 75.9 °F 14.0 °F 10% 29.98 in 10.0 mi North 6.9 mph - N/A   Clear
7:55 AM 82.9 °F 8.1 °F 6% 29.99 in 10.0 mi ESE 6.9 mph - N/A   Clear
8:55 AM 89.1 °F 5.0 °F 4% 29.98 in 10.0 mi South 4.6 mph - N/A   Partly Cloudy
9:55 AM 91.9 °F 3.9 °F 4% 29.98 in 10.0 mi Variable 3.5 mph 17.3 mph N/A   Clear
10:55 AM 97.0 °F 1.0 °F 4% 29.98 in 10.0 mi ENE 15.0 mph 21.9 mph N/A   Clear
11:55 AM 95.0 °F 6.1 °F 4% 29.97 in 10.0 mi WSW 9.2 mph - N/A   Clear
12:55 PM 97.0 °F 8.1 °F 4% 29.96 in 10.0 mi West 11.5 mph - N/A   Clear
1:55 PM 95.0 °F 10.0 °F 4% 29.96 in 10.0 mi West 13.8 mph - N/A   Smoke
2:55 PM 93.9 °F 16.0 °F 6% 29.95 in 10.0 mi WSW 13.8 mph - N/A   Smoke
3:55 PM 93.0 °F 16.0 °F 6% 29.94 in 10.0 mi WSW 11.5 mph - N/A   Smoke
4:55 PM 91.0 °F 24.1 °F 9% 29.94 in 10.0 mi WNW 15.0 mph - N/A   Smoke
5:55 PM 87.1 °F 28.9 °F 12% 29.93 in 10.0 mi WNW 10.4 mph - N/A   Smoke
6:55 PM 86.0 °F 21.0 °F 9% 29.94 in 10.0 mi NNW 11.5 mph - N/A   Smoke
7:55 PM 82.0 °F 19.0 °F 10% 29.96 in 10.0 mi NNW 10.4 mph - N/A   Smoke
8:55 PM 80.1 °F 19.0 °F 10% 29.98 in 10.0 mi NNW 9.2 mph - N/A   Partly Cloudy
9:55 PM 73.0 °F 21.9 °F 15% 29.98 in 10.0 mi North 4.6 mph - N/A   Partly Cloudy
10:55 PM 69.1 °F 19.9 °F 15% 29.99 in 10.0 mi NE 8.1 mph - N/A   Partly Cloudy
11:55 PM 69.1 °F 12.9 °F 11% 29.99 in 10.0 mi East 6.9 mph - N/A   Partly Cloudy